[[{"header":{"parameterUnit":"m.s-1","parameterCategory":1,"la1":30.2991,"la2":30.254,"lo1":-89.0895,"lo2":-89.0444,"dy":0.0017,"dx":0.0017,"nx":28,"ny":28,"refTime":"2025-03-20T21:00:00:Z","depth":0,"parameterNumber":2,"parameterNumberName":"U-component_of_WINDS"},"data":[0,0,0,0,0,0,0,0,0,0,0,0,0,0,0,0,0,0,0,0,0,0,0,0,0,0,0,0,0,0,0,0,0,0,0,0,0,0,0,0,0,0,0,0,0,0,0,0,0,0,0,0,0,0,0,0,0,0,0.5386,0.5386,0,0.5359,0.5358,0.5358,0.5351,0.5351,0.5352,0.5352,0.5322,0.5321,0.532,0,0,0,0,0,0,0,0,0,0,0,0,0,0.5432,0.5432,0.5386,0.5386,0.5385,0.5359,0.5358,0.5358,0.5351,0.5351,0.5352,0.5352,0.5322,0.5321,0.532,0,0,0,0,0,0,0,0,0,0,0,0,0,0.5409,0.5431,0.5386,0.5379,0.5378,0.5359,0.5358,0.5358,0.5351,0.5351,0.5352,0.5352,0.5322,0.5321,0.5319,0.5305,0,0,0.5315,0.5314,0,0,0,0,0,0,0,0,0.5411,0.5408,0.538,0.5379,0.5378,0.5359,0.5364,0.534,0.5351,0.5361,0.5352,0.5352,0.5334,0.5331,0.5325,0.5303,0.5302,0.5315,0.5314,0.5313,0.5313,0,0,0,0,0,0,0,0.5412,0.5409,0.5375,0.538,0.5379,0.5377,0.5374,0.5359,0.5346,0.536,0.536,0.5357,0.5333,0.5327,0.5325,0.5302,0.5315,0.5314,0.5313,0.5312,0.5269,0.5268,0,0,0,0,0,0,0.5415,0.541,0.5376,0.5374,0.5396,0.5376,0.5373,0.5365,0.5346,0.5344,0.5357,0.5357,0.5329,0.5326,0.5324,0.5306,0.5313,0.5312,0.5311,0.5269,0.5268,0.5268,0,0,0,0,0,0,0.5416,0.5412,0.5377,0.5392,0.5388,0.5375,0.5366,0.5364,0.5358,0.5343,0.5341,0.5353,0.5329,0.5326,0.531,0.5305,0.5311,0.531,0.5269,0.5269,0.5268,0.5271,0,0,0,0,0,0,0.5418,0.5413,0.5407,0.5392,0.5387,0.5364,0.5366,0.5363,0.5355,0.5355,0.5339,0.5337,0.5329,0.5312,0.5309,0.5303,0.5309,0.527,0.5269,0.5268,0.5271,0.5271,0.527,0,0,0,0,0,0.5419,0.5408,0.5407,0.5403,0.5379,0.5364,0.5361,0.5353,0.5355,0.5349,0.5341,0.5337,0.5307,0.5311,0.5307,0.5301,0.527,0.5269,0.5269,0.5272,0.5271,0.527,0,0,0,0,0,0,0.5421,0.5406,0.5404,0.5388,0.5377,0.5363,0.5355,0.5352,0.5341,0.5341,0.5331,0.5328,0.5313,0.5305,0.531,0.5287,0.5288,0.5287,0.5292,0.5291,0.5291,0.5293,0.5308,0,0,0,0,0,0.542,0.5409,0.5396,0.5383,0.5378,0.5368,0.536,0.5356,0.5344,0.534,0.533,0.5318,0.5306,0.5298,0.5286,0.5271,0.5268,0.5265,0.5264,0.5264,0.5262,0.5255,0.5254,0.5266,0.5266,0.5266,0,0,0.5416,0.5407,0.54,0.5383,0.5374,0.5363,0.5364,0.5351,0.5343,0.5337,0.5323,0.5315,0.5302,0.5287,0.528,0.528,0.5259,0.5263,0.5263,0.5262,0.5254,0.5253,0.5252,0.5266,0.5266,0.5266,0,0,0.5404,0.5396,0.5385,0.5377,0.5365,0.5358,0.5356,0.5342,0.5337,0.5323,0.5319,0.5309,0.5288,0.528,0.5272,0.5261,0.5257,0.5257,0.5254,0.5247,0.5246,0.5245,0.5241,0.524,0.5256,0.5256,0.5256,0,0.5401,0.5385,0.5379,0.5368,0.5361,0.5357,0.5346,0.5338,0.5322,0.5317,0.5318,0.5294,0.5284,0.5268,0.5265,0.5259,0.5257,0.5258,0.5247,0.5246,0.5245,0.5241,0.524,0.5256,0.5256,0.5256,0.5256,0,0.5383,0.5372,0.5364,0.535,0.5343,0.5331,0.5324,0.5317,0.5313,0.5307,0.5293,0.5282,0.5269,0.5265,0.5261,0.5248,0.5249,0.5249,0.525,0.5244,0.524,0.5239,0.5256,0.5256,0.5256,0.5256,0,0,0.5369,0.5354,0.5351,0.5346,0.5333,0.5325,0.5314,0.5302,0.5297,0.5286,0.5277,0.5261,0.5262,0.5254,0.5249,0.5243,0.5235,0.5243,0.5243,0.5242,0.5222,0.5222,0.5221,0.5234,0.5233,0.5233,0.5223,0,0.5356,0.5337,0.5332,0.5316,0.5307,0.5304,0.5295,0.5286,0.5281,0.5272,0.5266,0.5255,0.5255,0.5251,0.5245,0.5237,0.5231,0.5238,0.5225,0.5225,0.5228,0.5219,0.5219,0.521,0.5222,0.5222,0.5221,0,0.5337,0.5329,0.5312,0.5303,0.5298,0.529,0.528,0.5272,0.5262,0.5259,0.5252,0.5248,0.5238,0.524,0.5226,0.5231,0.5226,0.5222,0.5221,0.5219,0.5222,0.5217,0.5207,0.5205,0.5219,0.5219,0.5219,0,0.533,0.5314,0.5302,0.5298,0.5286,0.5281,0.5276,0.5267,0.5261,0.5252,0.5248,0.5238,0.5232,0.5225,0.5219,0.5221,0.5205,0.5207,0.5202,0.5202,0.5198,0.5198,0.5187,0.5195,0.5195,0.5195,0.5195,0,0.5315,0.5305,0.5299,0.5292,0.5281,0.5276,0.5266,0.5261,0.5253,0.5245,0.5242,0.5235,0.5228,0.522,0.5215,0.5205,0.5202,0.5199,0.5198,0.5199,0.5199,0.5195,0.5195,0.5195,0.5195,0.5195,0.5195,0,0.5304,0.53,0.5287,0.5278,0.5276,0.5268,0.5261,0.5254,0.525,0.524,0.5237,0.523,0.522,0.5214,0.5202,0.5199,0.5187,0.5186,0.5191,0.519,0.5185,0.5186,0.517,0.5169,0.5178,0.5178,0.5178,0,0.5295,0.5288,0.5279,0.5274,0.5269,0.5261,0.5256,0.5251,0.5245,0.5236,0.5231,0.5221,0.5213,0.5198,0.5192,0.5183,0.5182,0.5177,0.518,0.5182,0.5182,0.5182,0.5182,0.5176,0.5176,0.5176,0.5176,0,0.528,0.5278,0.5271,0.5263,0.5257,0.525,0.5243,0.5239,0.5234,0.5228,0.5219,0.5213,0.5201,0.5192,0.5183,0.5178,0.5176,0.5175,0.5174,0.5175,0.5178,0.5176,0.5189,0.5175,0.5175,0.5175,0.5175,0.5175,0.5269,0.5263,0.5257,0.5249,0.5244,0.5239,0.5232,0.5228,0.5221,0.5211,0.521,0.52,0.5193,0.5181,0.5176,0.5169,0.5169,0.5167,0.5166,0.5166,0.5166,0.5179,0.5167,0.5167,0.5167,0.5167,0.5167,0,0.5254,0.5251,0.5243,0.5235,0.5229,0.523,0.5223,0.5218,0.521,0.5204,0.5197,0.5188,0.518,0.5174,0.5165,0.5161,0.516,0.5159,0.5159,0.5158,0.5166,0.5168,0.516,0.516,0.516,0.516,0.516,0.516,0.5245,0.5236,0.5234,0.5222,0.5219,0.5211,0.5207,0.5202,0.5198,0.5187,0.5181,0.5178,0.5172,0.5164,0.5157,0.5155,0.5152,0.5151,0.515,0.5157,0.5157,0.5158,0.516,0.5151,0.5151,0.5143,0.5143,0.5143]},{"header":{"parameterUnit":"m.s-1","parameterCategory":1,"la1":30.2991,"la2":30.254,"lo1":-89.0895,"lo2":-89.0444,"dy":0.0017,"dx":0.0017,"nx":28,"ny":28,"refTime":"2025-03-20T21:00:00:Z","depth":0,"parameterNumber":3,"parameterNumberName":"V-component_of_WINDS"},"data":[0,0,0,0,0,0,0,0,0,0,0,0,0,0,0,0,0,0,0,0,0,0,0,0,0,0,0,0,0,0,0,0,0,0,0,0,0,0,0,0,0,0,0,0,0,0,0,0,0,0,0,0,0,0,0,0,0,0,-4.7043,-4.7045,0,-4.7245,-4.7248,-4.725,-4.7196,-4.7192,-4.7187,-4.7184,-4.7388,-4.7397,-4.7406,0,0,0,0,0,0,0,0,0,0,0,0,0,-4.6606,-4.6615,-4.7043,-4.7045,-4.7048,-4.7245,-4.7248,-4.725,-4.7196,-4.7191,-4.7186,-4.7182,-4.7385,-4.7396,-4.7407,0,0,0,0,0,0,0,0,0,0,0,0,0,-4.6801,-4.6617,-4.7042,-4.7045,-4.7047,-4.7244,-4.7248,-4.7251,-4.7197,-4.7191,-4.7185,-4.7179,-4.7382,-4.7395,-4.7409,-4.7616,0,0,-4.7451,-4.7457,0,0,0,0,0,0,0,0,-4.679,-4.6817,-4.7042,-4.7045,-4.7048,-4.7189,-4.7169,-4.7373,-4.7199,-4.714,-4.7184,-4.7177,-4.7327,-4.7345,-4.7396,-4.7625,-4.7634,-4.7452,-4.7461,-4.7467,-4.7471,0,0,0,0,0,0,0,-4.6777,-4.6808,-4.7123,-4.7045,-4.7049,-4.7035,-4.7056,-4.7207,-4.7265,-4.7145,-4.7141,-4.7166,-4.7327,-4.7383,-4.74,-4.7637,-4.7452,-4.7464,-4.7473,-4.7478,-4.8045,-4.8052,0,0,0,0,0,0,-4.6761,-4.6797,-4.7116,-4.7129,-4.6901,-4.7047,-4.7071,-4.715,-4.7263,-4.7275,-4.7171,-4.7163,-4.7362,-4.7384,-4.7407,-4.7657,-4.7467,-4.748,-4.7487,-4.8038,-4.8047,-4.8054,0,0,0,0,0,0,-4.6752,-4.679,-4.7108,-4.6962,-4.7002,-4.7061,-4.715,-4.7157,-4.7212,-4.7283,-4.7293,-4.7218,-4.7358,-4.7388,-4.7564,-4.7663,-4.7486,-4.7498,-4.803,-4.8041,-4.805,-4.8158,0,0,0,0,0,0,-4.674,-4.6787,-4.6867,-4.6965,-4.701,-4.7263,-4.7157,-4.7165,-4.7237,-4.7228,-4.7329,-4.734,-4.7356,-4.7544,-4.7578,-4.7679,-4.7509,-4.8022,-4.8035,-4.8047,-4.8146,-4.817,-4.8191,0,0,0,0,0,-4.6724,-4.6889,-4.6872,-4.6911,-4.7111,-4.7269,-4.7295,-4.731,-4.7245,-4.7325,-4.7371,-4.7337,-4.7647,-4.7562,-4.76,-4.7707,-4.8016,-4.8031,-4.8046,-4.8135,-4.8165,-4.8191,0,0,0,0,0,0,-4.6802,-4.6902,-4.6884,-4.7085,-4.7169,-4.7259,-4.7362,-4.7341,-4.7445,-4.7432,-4.7446,-4.7469,-4.765,-4.7696,-4.76,-4.7913,-4.7821,-4.7845,-4.7876,-4.7905,-4.7928,-4.7913,-4.7521,0,0,0,0,0,-4.6842,-4.6963,-4.7043,-4.7213,-4.7256,-4.7302,-4.7371,-4.7376,-4.7463,-4.7498,-4.7556,-4.7641,-4.7757,-4.7834,-4.7945,-4.8151,-4.8172,-4.8243,-4.8266,-4.8284,-4.8305,-4.8417,-4.845,-4.8104,-4.8104,-4.8103,0,0,-4.6927,-4.6996,-4.7072,-4.723,-4.7296,-4.742,-4.7332,-4.7467,-4.7559,-4.7518,-4.7688,-4.7734,-4.783,-4.8022,-4.811,-4.8066,-4.8405,-4.8304,-4.8318,-4.8329,-4.8436,-4.8469,-4.8498,-4.8114,-4.8112,-4.8111,0,0,-4.7145,-4.721,-4.7358,-4.7426,-4.7526,-4.7555,-4.7591,-4.7685,-4.7714,-4.7885,-4.7857,-4.7966,-4.8166,-4.8235,-4.8297,-4.854,-4.8513,-4.8575,-4.8695,-4.8805,-4.8832,-4.8856,-4.8943,-4.8974,-4.8595,-4.8596,-4.8596,0,-4.7237,-4.7424,-4.7437,-4.7575,-4.7645,-4.7614,-4.7764,-4.7828,-4.796,-4.8009,-4.7958,-4.8208,-4.827,-4.8479,-4.8538,-4.8589,-4.8629,-4.8564,-4.8827,-4.8851,-4.8874,-4.8957,-4.899,-4.8603,-4.8602,-4.8601,-4.86,0,-4.7533,-4.7662,-4.777,-4.7898,-4.798,-4.8123,-4.8157,-4.8238,-4.8235,-4.827,-4.8444,-4.8517,-4.8642,-4.8692,-4.869,-4.89,-4.887,-4.8823,-4.8732,-4.8914,-4.8992,-4.9024,-4.8613,-4.861,-4.8608,-4.8606,0,0,-4.7806,-4.7939,-4.7979,-4.8036,-4.8145,-4.8245,-4.8385,-4.8509,-4.8578,-4.8669,-4.8787,-4.8957,-4.8915,-4.8984,-4.899,-4.9086,-4.9273,-4.9027,-4.9029,-4.907,-4.9509,-4.9544,-4.958,-4.9255,-4.9261,-4.9266,-4.9501,0,-4.8034,-4.8283,-4.8299,-4.8524,-4.8643,-4.8615,-4.8738,-4.8817,-4.8852,-4.8958,-4.8996,-4.9116,-4.9051,-4.9093,-4.9186,-4.9231,-4.9362,-4.9214,-4.9365,-4.937,-4.9343,-4.9621,-4.9659,-4.9877,-4.9531,-4.9536,-4.954,0,-4.8333,-4.8434,-4.8672,-4.8763,-4.8813,-4.8924,-4.9037,-4.9139,-4.9227,-4.9246,-4.9324,-4.9315,-4.9459,-4.9362,-4.9559,-4.9458,-4.9521,-4.9552,-4.956,-4.9576,-4.9467,-4.9644,-4.9946,-4.9979,-4.9588,-4.9585,-4.9581,0,-4.8509,-4.8704,-4.8872,-4.8922,-4.9032,-4.911,-4.9159,-4.9242,-4.9314,-4.9413,-4.946,-4.9574,-4.9637,-4.9725,-4.9747,-4.9674,-4.9944,-4.9849,-4.9963,-4.9963,-5.0022,-5.0018,-5.0339,-5.0062,-5.0061,-5.006,-5.006,0,-4.8762,-4.8909,-4.8952,-4.9056,-4.9218,-4.9234,-4.9394,-4.9438,-4.9512,-4.9622,-4.9604,-4.9708,-4.973,-4.9838,-4.9856,-5.0017,-5.0045,-5.0064,-5.0067,-5.0066,-5.0064,-5.0108,-5.0093,-5.0069,-5.0067,-5.0065,-5.0064,0,-4.8987,-4.9022,-4.9203,-4.9292,-4.9318,-4.9434,-4.951,-4.9608,-4.964,-4.978,-4.9814,-4.9865,-4.9991,-5.0021,-5.0171,-5.0183,-5.0373,-5.0361,-5.0344,-5.0343,-5.0456,-5.0445,-5.0817,-5.0866,-5.0556,-5.0559,-5.0561,0,-4.9147,-4.9259,-4.936,-4.9433,-4.9486,-4.9604,-4.9678,-4.9697,-4.9775,-4.9883,-4.9969,-5.0093,-5.0193,-5.0395,-5.0445,-5.0559,-5.055,-5.0673,-5.0568,-5.0563,-5.0553,-5.0546,-5.0557,-5.0693,-5.0696,-5.0699,-5.0701,0,-4.9427,-4.9438,-4.9547,-4.9661,-4.975,-4.9841,-4.9928,-4.9988,-5.0019,-5.0107,-5.0236,-5.0314,-5.0467,-5.059,-5.0705,-5.0754,-5.0734,-5.0734,-5.0766,-5.0767,-5.0753,-5.0762,-5.0399,-5.0725,-5.0723,-5.0721,-5.072,-5.0719,-4.9625,-4.9723,-4.9809,-4.993,-4.9997,-5.0078,-5.0175,-5.022,-5.0328,-5.0455,-5.0459,-5.0599,-5.0683,-5.0836,-5.0892,-5.1001,-5.0963,-5.1011,-5.1023,-5.1034,-5.1044,-5.0734,-5.1022,-5.1021,-5.102,-5.102,-5.1019,0,-4.9904,-4.9958,-5.0069,-5.0191,-5.0286,-5.0258,-5.0352,-5.0433,-5.0557,-5.0638,-5.0737,-5.0885,-5.1004,-5.1062,-5.118,-5.1256,-5.125,-5.1287,-5.1282,-5.1293,-5.1071,-5.1031,-5.129,-5.129,-5.129,-5.129,-5.129,-5.129,-5.006,-5.0225,-5.0247,-5.0444,-5.0497,-5.0635,-5.0691,-5.0765,-5.083,-5.0996,-5.1095,-5.1133,-5.1205,-5.1327,-5.1435,-5.1449,-5.1493,-5.1536,-5.1545,-5.1336,-5.1309,-5.1283,-5.1245,-5.1545,-5.1545,-5.1758,-5.176,-5.1761]}]]